Regional Weather Roundup
Issued by NWS

Home | Current Version | Previous Version | Text Only | Print | Product List | Glossary On
Versions: 1 2 3 4 5 6 7 8 9 10 11 12 13 14 15 16 17 18 19 20 21 22 23 24 25 26 27 28 29 30 31 32 33 34 35 36 37 38 39 40 41 42 43 44 45 46 47 48 49 50
000
ASUS43 KMKX 290000
RWRWI

WISCONSIN REGIONAL WEATHER ROUNDUP
NATIONAL WEATHER SERVICE MILWAUKEE/SULLIVAN WI
700 PM CDT THU JUL 28 2016

NOTE: "FAIR" INDICATES FEW OR NO CLOUDS BELOW 12,000 FEET WITH NO
SIGNIFICANT WEATHER AND/OR OBSTRUCTIONS TO VISIBILITY.

WIZ001-002-006>008-014>016-023>028-290100-
NORTHWEST WISCONSIN

CITY           SKY/WX    TMP DP  RH WIND       PRES   REMARKS
SUPERIOR ARPT  CLOUDY    65  60  82 NE7       30.08R
ASHLAND        PTSUNNY   65  55  70 NE6       30.09R
6HR MIN TEMP:  65; 6HR MAX TEMP:  72;

HAYWARD        MOSUNNY   68  53  58 NE12      30.07R
6HR MIN TEMP:  68; 6HR MAX TEMP:  74;

SIREN          MOSUNNY   72  54  53 E6        30.05R
CUMBERLAND     CLOUDY    70  55  60 N13G18    30.05R
RICE LAKE      CLOUDY    72  59  64 N14       30.05R
CHETEK         CLOUDY    72  62  70 N7        30.03R
LADYSMITH      CLOUDY    71  61  69 N9        30.05S
EAU CLAIRE     NOT AVBL
MENOMONIE      CLOUDY    69  64  82 SE5       30.03R
6HR MIN TEMP:  67; 6HR MAX TEMP:  72;

NEW RICHMOND   CLOUDY    73  57  56 NE7       30.03S
OSCEOLA        MOSUNNY   72  56  57 NE8       30.06R
$$

WIZ003>005-009-010-017-018-290100-
NORTH CENTRAL WISCONSIN

CITY           SKY/WX    TMP DP  RH WIND       PRES   REMARKS
MANITOWISH WTR CLOUDY    67  56  68 N7        30.07R
6HR MIN TEMP:  67; 6HR MAX TEMP:  73;

ARBOR VITAE    MOSUNNY   69  57  64 NE8       30.06S
WOODRUFF       MOSUNNY   69  57  64 NE8       30.06S
RHINELANDER    CLOUDY    70  55  59 NE6       30.05R
6HR MIN TEMP:  70; 6HR MAX TEMP:  74;

EAGLE RIVER    PTSUNNY   67  51  56 NE15      30.06R
LAND O LAKES   MOSUNNY   67  52  58 NE9       30.08S
PHILLIPS       MOSUNNY   71  58  63 NE12G18   30.04S
6HR MIN TEMP:  71; 6HR MAX TEMP:  74;

TOMAHAWK       CLOUDY    69  58  67 CALM      30.04R
6HR MIN TEMP:  69; 6HR MAX TEMP:  72;

MEDFORD        CLOUDY    65  65  97 CALM      30.02S
MERRILL        CLOUDY    69  64  86 CALM      30.03R
6HR MIN TEMP:  65; 6HR MAX TEMP:  69;

$$

WIZ029-030-035-036-043>047-290100-
CENTRAL WISCONSIN

CITY           SKY/WX    TMP DP  RH WIND       PRES   REMARKS
WAUSAU         CLOUDY    67  63  87 CALM      30.00S
6HR MIN TEMP:  60; 6HR MAX TEMP:  68; 6HR PCP:  0.05;

MOSINEE        CLOUDY    66  63  88 NE7       30.02S
MARSHFIELD     LGT RAIN  64  60  87 E5        30.00S
6HR MIN TEMP:  62; 6HR MAX TEMP:  65; 6HR PCP:  0.26;

STEVENS POINT  LGT RAIN  62  60  93 N3        30.01S
WAUPACA        CLOUDY    69  60  72 NE6       29.99R
WAUTOMA        CLOUDY    69  63  81 NE8       29.98S
6HR MIN TEMP:  68; 6HR MAX TEMP:  71;

WISC RAPIDS    CLOUDY    68  58  70 NE8       29.99F
6HR MIN TEMP:  66; 6HR MAX TEMP:  70; 6HR PCP: TRACE;

CAMP DOUGLAS   NOT AVBL
$$

WIZ011>013-019>022-031-037>040-048>050-290100-
NORTHEAST WISCONSIN

CITY           SKY/WX    TMP DP  RH WIND       PRES   REMARKS
ANTIGO         CLOUDY    68  63  85 CALM      30.04R
SHAWANO        CLOUDY    70  62  76 NE7       30.00F
OCONTO         CLOUDY    67  67 100 CALM      29.99S
STURGEON BAY   CLOUDY    69  61  75 NE5       30.00S
6HR MIN TEMP:  65; 6HR MAX TEMP:  69;

GREEN BAY      CLOUDY    68  64  87 NE7       29.99R
6HR MIN TEMP:  65; 6HR MAX TEMP:  68; 6HR PCP:  0.11;

MANITOWOC      NOT AVBL
APPLETON       CLOUDY    70  55  60 NE9       29.97S
CLINTONVILLE   CLOUDY    68  59  73 E7        30.00R
OSHKOSH        CLOUDY    69  62  78 NE12      29.97R
6HR MIN TEMP:  69; 6HR MAX TEMP:  72; 6HR PCP: TRACE;

$$

WIZ032>034-041-042-053>061-290100-
SOUTHWEST WISCONSIN

CITY           SKY/WX    TMP DP  RH WIND       PRES   REMARKS
LA CROSSE      CLOUDY    67  64  90 N9        29.97F
6HR MIN TEMP:  66; 6HR MAX TEMP:  68; 6HR PCP:  0.03;

SPARTA         DRIZZLE   64  64  99 N3        29.98S
VIROQUA        CLOUDY    65  65 100 N9        29.97S
6HR MIN TEMP:  65; 6HR MAX TEMP:  69; 6HR PCP:  0.99;

BOSCOBEL       CLOUDY    73  67  81 N6        29.93R
6HR MIN TEMP:  71; 6HR MAX TEMP:  79; 6HR PCP:  0.36;

PRAIRIE DU CHI CLOUDY    70  65  84 NW10      29.92S
PLATTEVILLE    PTSUNNY   73  69  87 NE16      29.93R
6HR MIN TEMP:  73; 6HR MAX TEMP:  81;

$$

WIZ056-057-062-063-064-067-068-290100-
SOUTH CENTRAL WISCONSIN

CITY           SKY/WX    TMP DP  RH WIND       PRES   REMARKS
REEDSBURG      CLOUDY    71  65  83 NE9       29.94R
6HR MIN TEMP:  70; 6HR MAX TEMP:  72;

BARABOO/DELLS  CLOUDY    70  64  80 E9        29.94F
LONE ROCK      PTSUNNY   74  66  76 NE8       29.93R
MINERAL POINT  HVY RAIN  72  70  94 SW5       29.95R
MADISON        CLOUDY    73  65  75 NE10      29.92S
6HR MIN TEMP:  73; 6HR MAX TEMP:  79;

MIDDLETON      CLOUDY    73  68  86 E8        29.93S
WATERTOWN      CLOUDY    69  66  89 NE10      29.94R
6HR MIN TEMP:  69; 6HR MAX TEMP:  76;

MONROE         PTSUNNY   72  66  83 NE7       29.92R
JANESVILLE     PTSUNNY   73  70  88 E10       29.90S
$$

WIZ051-052-058>065-066-070>072-290100-
SOUTHEAST WISCONSIN

CITY           SKY/WX    TMP DP  RH WIND       PRES   REMARKS
MILWAUKEE      PTSUNNY   69  64  84 NE16      29.93S
6HR MIN TEMP:  67; 6HR MAX TEMP:  77; 6HR PCP: TRACE;

WAUKESHA       PTSUNNY   66  61  82 NE12G18   29.95F
MILWAUKEE/TIMM CLOUDY    68  61  77 NE12G17   29.95F
RACINE         CLOUDY    70  65  84 N12       29.94F
6HR MIN TEMP:  66; 6HR MAX TEMP:  78; 6HR PCP:  0.02;

BURLINGTON     MOSUNNY   70  65  84 NE10      29.92S
KENOSHA        CLOUDY    71  67  87 NE15      29.91F
6HR MIN TEMP:  68; 6HR MAX TEMP:  83; 6HR PCP:  0.04;

FOND DU LAC    CLOUDY    72  63  73 NE10      29.97R
6HR MIN TEMP:  72; 6HR MAX TEMP:  76;

SHEBOYGAN      CLOUDY    68  58  70 N14       29.96S
6HR MIN TEMP:  67; 6HR MAX TEMP:  72;

WEST BEND      CLOUDY    68  59  73 NE9       29.96R
JUNEAU         CLOUDY    69  63  81 NE8       29.96R
$$

LSZ147-162-290100-
LAKE SUPERIOR

STATION/POSITION TIME  TEMP    WIND        PRES    WAVE
                       AIR SEA DIR/SP/G            HT/PER
                 (UTC) (F)     (DEG/KT/KT) (MB)    (FT/S)
W MID LAKE BUOY  2250   62 61  100/  8/ 10 1018.2F   2/ 5
DEVILS ISLAND    2300   64      80/ 11/ 11 1018.8R
PORT WING        2230   61      20/ 11/ 13 1018.6R
SAXON HARBOR     2300   67      50/ 14/ 16 1017.9S
$$

LMZ867-665-643>646-290100-
LAKE MICHIGAN

STATION/POSITION TIME  TEMP    WIND        PRES    WAVE
                       AIR SEA DIR/SP/G            HT/PER
                 (UTC) (F)     (DEG/KT/KT) (MB)    (FT/S)
CHAMBERS ISLAND  2300   72      20/  9/ 11 1015.6R
N MID LAKE BUOY  2250   71 71   30/  8/ 10 1014.6S   0
NORTHPORT PIER   2300   72      40/  5/  6 1015.6R
SISTER BAY       2321   73      20/  6/  7   N/A
ALGOMA LAKESHORE 2313           40/ 10/ 13   N/A
KEWAUNEE LAKESHO 2300           10/  4/  7   N/A
SHEBOYGAN LAKESH 2300   60      10/ 14/ 15 1014.5F
PORT WASHINGTON  2300   67      20/  8/ 15 1014.6F
ATWATER BUOY     2300   63 64  340/ 14/ 16 1015.4R
MILWAUKEE LAKESH 2310   65     360/ 16/ 19   N/A
S MID LAKE BUOY  2250   75 77   50/ 14/ 17 1011.5F   2/ 6
KENOSHA   LAKESH 2300   69     360/ 14/ 16 1012.5R
$$

TC  - TEMPERATURE IN CELSIUS
VSB - VISIBILITY IN STATUTE MILES
WCI - WIND CHILL INDEX
HX  - HEAT INDEX





USA.gov is the U.S. government's official web portal to all federal, state and local government web resources and services.